www.pogodaiklimat.ru

Погода и климат >> Архив погоды >> Россия >> Ненецкий АО >> Амдерма


ПОГОДА в Амдерме

  • Прогноз погоды в Амдерме
  • Монитор погоды в Амдерме
  • Климат города

АРХИВ ПОГОДЫ в Амдерме

Время (UTC), дата Ветер
(напр.,м/с)
 
Видим.   Явления Облачность Т
(С)
Тd
(С)
f
(%)
Тe
(С)
Тes
(С)
Комфортность P
(гПа)
Po
(гПа)
Тmin
(С)
Tmax
(С)
R
(мм)
R24
(мм)
S
(см)
18 13.05 С 9-12
{14}
10 км позёмок {ливн. осадки, метель} 10/10 300 м
[Sc]
+0.1 -1.0 92 -8 -8 1008.0 1001.3
21 13.05 С 8-12
{14}
10 км {метель} 10/10 300 м
[Sc]
-1.4 -2.5 92 -9 -9 1010.8 1004.1
00 14.05 С 9-12
{14}
10 км {ливн. осадки, метель} 10/10 300 м
[Sc]
-3.4 -5.1 88 -12 -12 1013.7 1006.8
03 14.05 С 7
{12}
10 км 10/10 300 м
[Sc]
-3.5 -6.9 77 -11 -11 1016.1 1009.2 -5.5 0.0 14
06 14.05 С 4
{10}
10 км 10/10 300 м
[Sc]
-5.8 -7.3 89 -12 -12 1016.8 1009.9 -6.7
09 14.05 С 2 10 км 10/10
[Sc]
-4.9 -7.3 83 -9 -9 1017.6 1010.7
12 14.05 СЗ 2 10 км 10/10 300 м
[Sc]
-4.8 -7.2 83 -9 -9 1016.8 1009.9
15 14.05 штиль 0 10 км слабый ливневой снег 9/9 300 м
[Cb cap]
-4.9 -7.7 81 -6 -6 1015.7 1008.8 -4.5 0.0
18 14.05 СВ 2 10 км слабый ливневой снег 9/5 300 м
[Cb cap Ac trans Ci fib]
-6.5 -8.1 88 -11 -11 1014.2 1007.3
21 14.05 С 4 10 км {ливн. осадки} 9/9 300 м
[Sc]
-7.4 -10.0 82 -14 -14 1014.4 1007.5
00 15.05 СВ 7
{10}
10 км позёмок {ливн. осадки, метель} 10/10 600 м
[Sc]
-8.2 -10.1 86 -17 -17 1017.0 1010.0
03 15.05 СВ 6
{10}
10 км {ливн. осадки, метель} 3/1 300 м
[Sc Ac trans]
-9.4 -11.9 82 -18 -17 1019.4 1012.4 -9.4 0.3 14
06 15.05 С 6 10 км слабый ливневой снег {метель} 10/10 300 м
[Cb cap]
-7.9 -10.1 84 -16 -16 1021.1 1014.1
09 15.05 СЗ 6 10 км слабый ливневой снег 9/9 600 м
[Cb cap]
-5.5 -8.5 79 -13 -13 1022.5 1015.6
12 15.05 СЗ 5 10 км в посл. час ливневой снег 9/9 600 м
[Cu Sc]
-5.1 -8.8 75 -12 -12 1023.8 1016.9
15 15.05 СЗ 4 10 км 8/5 600 м
[Cu hum Cc]
-6.1 -8.8 81 -13 -12 1024.2 1017.3 -4.9 0.0
18 15.05 З 4 10 км слабый ливневой снег 10/10 600 м
[Cb cap]
-6.6 -8.6 86 -13 -13 1022.9 1016.0
21 15.05 З 4 10 км {ливн. осадки} 10/10 300 м
[St]
-6.1 -7.2 92 -13 -13 1022.1 1015.2
00 16.05 С 2 10 км {ливн. осадки} 3/0
[Ci fib]
-7.5 -8.8 90 -12 -11 1022.1 1015.2
03 16.05 СЗ 2 10 км 5/3 300 м
[St Ci fib]
-7.7 -9.1 90 -12 -10 1022.5 1015.6 -8.1 0.0 14
06 16.05 З 3 10 км 4/0
[Cc]
-6.4 -8.0 88 -12 -6 1022.5 1015.6
09 16.05 З 4 10 км 8/0
[Cc]
-3.7 -8.1 71 -10 -5 1021.8 1014.9
12 16.05 ЮЗ 4 10 км 8/0
[Ac cast Cc]
-3.0 -7.2 73 -9 -6 1020.9 1014.0
15 16.05 ЮЗ 4 10 км 10/10 600 м
[Sc]
-3.8 -6.4 82 -10 -10 1019.6 1012.7 -2.7
18 16.05 З 2 10 км 10/10 600 м
[Sc]
-4.0 -6.2 85 -8 -8 1017.5 1010.6
21 16.05 В 2 4000 м слабая переохл. морось (гололёд) 10/10 200 м
[St]
-4.1 -4.3 99 -9 -9 1016.1 1009.2
00 17.05 СВ 4 10 км в посл. час ливневой снег {морось} 10/3 300 м
[Sc Ac und]
-5.1 -5.8 95 -12 -12 1015.8 1008.9
03 17.05 С 4 10 км {ливн. осадки} 9/8 300 м
[Sc Ac trans]
-5.9 -6.6 95 -13 -12 1016.7 1009.8 -6.0 0.7 15
06 17.05 С 5 10 км {ливн. осадки} 3/3 300 м
[Sc Ac trans]
-6.8 -9.2 83 -14 -11 1018.1 1011.2 -6.9
09 17.05 С 5 10 км слабый ливневой снег 9/9 300 м
[Cb cap]
-7.6 -10.2 82 -15 -15 1019.6 1012.7
12 17.05 СВ 5 10 км {ливн. осадки} 9/9 300 м
[Sc]
-7.3 -9.8 82 -15 -14 1021.9 1015.0
15 17.05 С 4 10 км 10/10 600 м
[Sc]
-6.9 -9.4 82 -14 -14 1022.9 1016.0 -5.8 0.0
18 17.05 С 4 10 км слабый ливневой снег 10/10 600 м
[Cb cap]
-6.5 -8.9 83 -13 -13 1023.7 1016.8
21 17.05 С 3 10 км {ливн. осадки} 10/10 600 м
[Sc]
-6.6 -9.0 83 -12 -12 1024.7 1017.8
00 18.05 С 3 10 км {ливн. осадки} 10/10 600 м
[Sc]
-6.6 -8.2 88 -12 -12 1024.8 1017.9
03 18.05 С 2 10 км 10/10 600 м
[Sc]
-6.1 -8.0 86 -10 -10 1025.1 1018.2 -6.9 0.0 15
06 18.05 З 2 10 км 10/10 600 м
[Sc]
-5.8 -8.0 84 -10 -10 1025.2 1018.3
09 18.05 СЗ 2 10 км 10/10 600 м
[Sc]
-5.2 -7.3 85 -9 -9 1025.5 1018.6
12 18.05 штиль 0 10 км 10/10 600 м
[Sc]
-5.5 -8.5 79 -6 -6 1024.9 1018.0
15 18.05 Ю 2 10 км 10/10 100 м
[Sc]
-6.1 -8.4 84 -10 -10 1023.5 1016.6 -4.8
18 18.05 ЮВ 2 10 км 10/0
[Ac und]
-7.4 -8.7 90 -12 -12 1022.4 1015.5
21 18.05 ЮВ 5 10 км 10/0
[Ac und]
-7.9 -8.9 93 -16 -16 1020.7 1013.7
00 19.05 В 6 10 км 9/0
[Ac trans]
-7.7 -9.1 90 -16 -16 1017.6 1010.7
03 19.05 В 8-10
{10}
10 км позёмок {метель} 9/3 600 м
[Sc Ac trans]
-6.3 -8.6 84 -15 -15 1014.7 1007.8 -8.4 14
06 19.05 В 5
{12}
10 км {метель} 9/5 600 м
[Sc Ac trans]
-2.5 -4.7 85 -9 -8 1011.8 1005.1
09 19.05 ЮВ 10-12
{12}
10 км 9/4 600 м
[Sc Ac trans]
+0.6 -1.7 85 -7 -7 1019.0 1002.3
12 19.05 ЮВ 10-12
{13}
10 км 9/5 1000 м
[Sc Ac trans]
+1.5 -1.3 82 -6 -6 1006.0 999.3
15 19.05 Ю 12-14
{15}
10 км 10/0
[Ac und]
+2.4 -0.9 79 -5 -5 1002.4 995.8 +2.5
18 19.05 Ю 7
{14}
10 км 10/4 300 м
[Sc Ac und]
+1.1 -0.6 88 -6 -6 1000.2 993.6
21 19.05 З 4
{10}
4000 м слабый ливневой снег 10/10 300 м
[Cb cap]
+0.3 -0.3 96 -5 -5 999.9 993.3
00 20.05 СЗ 6
{10}
2000 м дымка {ливн. осадки, туман} 10/10 300 м
[St]
-1.3 -1.5 99 -9 -9 1001.0 994.4
03 20.05 С 8-11
{11}
4000 м дымка 10/10 300 м
[St]
-3.5 -4.3 94 -12 -12 1003.7 996.9 -3.5 0.7 12
06 20.05 С 6 10 км 10/10 600 м
[Sc]
-3.8 -5.6 87 -11 -11 1006.3 999.5
12 20.05 С 5
{10}
10 км 10/10 600 м
[Sc]
-3.9 -5.1 91 -11 -11 1010.9 1004.1

 

Местоположение метеостанции Амдерма (Ненецкий АО, Россия): широта 69.77 долгота 61.68 высота над уровнем моря 48 м.

В архиве по умолчанию представлена погода в Амдерме за последнюю неделю. Архивные данные за месяц целиком и за предыдущие месяцы, начиная с января 2011 года, Вы можете получить, выбрав интересующий диапазон дат из раскрывающегося списка и нажав кнопку "Ввод!".


*Определитесь, кто Вы:
робот инопланетянин человек

Внимание! Время в таблицах - всемирное. Для получения местного времени необходимо прибавить поправку, которая в Амдерме равна 3 ч.

Смотрите также архив погоды в соседних городах и на ближайших метеорологических станциях:

Погода на Мысе Белый Нос (Ненецкий АО, Россия) (60 км)
Погода в Имени Федорова (Ненецкий АО, Россия) (124 км)
Погода в Усть-Каре (Ненецкий АО, Россия) (139 км)
Погода в Варандее (Ненецкий АО, Россия) (179 км)
Погода в Inari Angeli (Финляндия) (186 км)
Погода в Марресаля (Ямало-Ненецкий АО, Россия) (197 км)
Погода в Воркуте (Коми, Россия) (271 км)
Погода на Мысе Константиновском (Ненецкий АО, Россия) (279 км)
Погода в Хорей-Вере (Ненецкий АО, Россия) (300 км)
Погода в Елецкой (Коми, Россия) (318 км)

Пояснения к столбцам:

Ветер - указаны скорость ветра в м/с - средняя за 10 мин, порывы в срок и между сроками (в фигурных скобках) и направление, откуда дует ветер: С - северный, СВ - северо-восточный, В - восточный, ЮВ - юго-восточный, Ю - южный, ЮЗ - юго-западный, З - западный, СЗ - северо-западный.
Видимость - горизонтальная дальность видимости в метрах или километрах. При видимости от 1 до 10 км при отсутствии осадков обычно наблюдается дымка, при ухудшении видимости до 1 км и менее - туман. В сухую погоду видимость может ухудшаться дымом, пылью или мглою.
Явления - указаны атмосферные явления, наблюдавшиеся в срок или в последний час перед сроком; фигурными скобками обозначены явления, наблюдавшиеся между сроками (за 1-3 часа до срока); квадратными скобками обозначены град или гололедные отложения с указанием их диаметра в мм.
Облачность - указаны через наклонную черту общая и нижняя облачность в баллах и высота нижней границы облаков в метрах; квадратными скобками обозначены формы облаков: Ci - перистые, Cs - перисто-слоистые, Cc - перисто-кучевые, Ac - высококучевые, As - высокослоистые, Sc - слоисто-кучевые, Ns - слоисто-дождевые, Cu - кучевые, Cb - кучево-дождевые. Подробнее классификацию облаков см. в Атласе облаков (PDF).
T - Температура воздуха - температура, измеренная на высоте 2 м над землей.
Td - Температура точки росы - температура, при понижении до которой содержащийся в воздухе водяной пар достигнет насыщения.
f - Относительная влажность воздуха - влажноcть воздуха, измеренная на высоте 2 м над землей.
Te - Эффективная температура - температура, которую ощущает одетый по сезону человек в тени. Характеристика душности погоды. При расчете учитывается влияние влажности воздуха и скорости ветра на теплоощущения человека.
Tes - Эффективная температура на солнце - температура, которую ощущает человек, с поправкой на солнечный нагрев. Характеристика знойности погоды. Зависит от высоты солнца над горизонтом, облачности и скорости ветра. Ночью, в пасмурную погоду, а также при ветре 12 м/с и более поправка равна нулю.
P - Атмосферное давление - приведенное к уровню моря атмосферное давление.
Po - Атмосферное давление - измеренное на уровне метеостанции атмосферное давление.
Tmin - Минимальная температура - минимум температуры воздуха на высоте 2 м над землей.
Tmax - Максимальная температура - максимум температуры воздуха на высоте 2 м над землей.
R - Количество осадков - Количество выпавших осадков за период времени, мм. При наведении курсора мыши на число - период времени, за который выпало указанное количество осадков.
R24 - Количество осадков - Количество выпавших осадков за 24 часа, мм.
S - Снежный покров - Высота снежного покрова, см. При наведении курсора мыши на число - состояние снежного покрова и степень покрытия местности в баллах.